WetterOnline ( https://www.wetteronline.de )

Wetter aktuell Chemnitz

Aktuelles Wetter: Marienberg (640m)

6-stündlich | Neueste Meldungen
Ortszeit Temperatur Wetter
Do, 25.04. 8:00 12.2° C leicht bewölkt
Do, 25.04. 2:00 12.0° C bewölkt
Mi, 24.04. 20:00 15.3° C wolkig
Mi, 24.04. 14:00 16.2° C wolkenlos
Mi, 24.04. 8:00 8.5° C bewölkt
Mi, 24.04. 2:00 8.0° C bedeckt
Di, 23.04. 20:00 9.5° C bewölkt
Di, 23.04. 14:00 14.2° C wolkig
Ortszeit Temperatur Wetter
Do, 25.04. 10:00 16.2° C leicht bewölkt
Do, 25.04. 9:50 16.2° C wolkig
Do, 25.04. 9:40 15.0° C wolkig
Do, 25.04. 9:30 14.8° C bedeckt
Do, 25.04. 9:20 14.8° C bedeckt
Do, 25.04. 9:10 14.8° C bedeckt
Do, 25.04. 9:00 14.7° C leicht bewölkt
Do, 25.04. 8:30 13.5° C bewölkt
Do, 25.04. 8:00 12.2° C leicht bewölkt
Do, 25.04. 7:30 9.8° C wolkenlos
Do, 25.04. 7:00 7.9° C fast wolkenlos
Ortszeit Relative Feuchte Sichtweite
Do, 25.04. 8:00 54% 65 km
Do, 25.04. 2:00 61% 55 km
Mi, 24.04. 20:00 65% 28 km
Mi, 24.04. 14:00 54% 35 km
Mi, 24.04. 8:00 84% 12 km
Mi, 24.04. 2:00 86% 15 km
Di, 23.04. 20:00 75% 40 km
Di, 23.04. 14:00 54% 30 km
Ortszeit Relative Feuchte Sichtweite
Do, 25.04. 10:00 33% >70 km
Do, 25.04. 9:50 33% -
Do, 25.04. 9:40 33% -
Do, 25.04. 9:30 33% 60 km
Do, 25.04. 9:20 33% -
Do, 25.04. 9:10 39% -
Do, 25.04. 9:00 39% >70 km
Do, 25.04. 8:30 40% >70 km
Do, 25.04. 8:00 54% 65 km
Do, 25.04. 7:30 61% >70 km
Do, 25.04. 7:00 64% >70 km
Ortszeit Niederschlagsmenge Niederschlagsart
Do, 25.04. 8:00 0.0 l/m2 in 12 Std. -
Do, 25.04. 2:00 0.0 l/m2 in 6 Std. -
Mi, 24.04. 20:00 0.0 l/m2 in 12 Std. -
Mi, 24.04. 14:00 0.0 l/m2 in 6 Std. -
Mi, 24.04. 8:00 0.0 l/m2 in 12 Std. -
Mi, 24.04. 2:00 0.0 l/m2 in 6 Std. -
Di, 23.04. 20:00 0.0 l/m2 in 12 Std. -
Di, 23.04. 14:00 0.0 l/m2 in 6 Std. -
Ortszeit Niederschlagsmenge Niederschlagsart
Do, 25.04. 10:00 0.0 l/m2 in 1 Std. -
Do, 25.04. 9:50 keine Meldung -
Do, 25.04. 9:40 keine Meldung -
Do, 25.04. 9:30 0.0 l/m2 in 1 Std. -
Do, 25.04. 9:20 keine Meldung -
Do, 25.04. 9:10 keine Meldung -
Do, 25.04. 9:00 0.0 l/m2 in 1 Std. -
Do, 25.04. 8:30 0.0 l/m2 in 1 Std. -
Do, 25.04. 8:00 0.0 l/m2 in 1 Std. -
Do, 25.04. 7:30 0.0 l/m2 in 1 Std. -
Do, 25.04. 7:00 0.0 l/m2 in 1 Std. -
Ortszeit Stärke Spitze Richtung
km/h Bft. km/h Grad Sektor
Do, 25.04. 8:00 0 0 22 - -
Do, 25.04. 2:00 7 2 43 240° SW
Mi, 24.04. 20:00 19 3 48 130° SO
Mi, 24.04. 14:00 20 4 43 140° SO
Mi, 24.04. 8:00 13 3 56 100° O
Mi, 24.04. 2:00 32 5 65 140° SO
Di, 23.04. 20:00 28 4 69 130° SO
Di, 23.04. 14:00 28 4 76 100° O
Ortszeit Stärke Spitze Richtung
km/h Bft. km/h Grad Sektor
Do, 25.04. 10:00 6 1 13 130° SO
Do, 25.04. 9:50 6 1 - 130° SO
Do, 25.04. 9:40 4 1 - 270° W
Do, 25.04. 9:30 6 1 9 320° NW
Do, 25.04. 9:20 6 1 - 320° NW
Do, 25.04. 9:10 4 1 - 270° W
Do, 25.04. 9:00 4 1 7 230° SW
Do, 25.04. 8:30 4 1 7 200° S
Do, 25.04. 8:00 0 0 7 - -
Do, 25.04. 7:30 2 1 7 210° SW
Do, 25.04. 7:00 4 1 7 210° SW
Ortszeit Untergrenze Bedeckung Gattung
total tief tief mittel hoch
Do, 25.04. 8:00 7500 m 6/8 0/8 - - -
Do, 25.04. 2:00 1020 m 8/8 5/8 - - -
Mi, 24.04. 20:00 7800 m 8/8 0/8 - - -
Mi, 24.04. 14:00 - 0/8 0/8 - - -
Mi, 24.04. 8:00 270 m 7/8 7/8 - - -
Mi, 24.04. 2:00 4500 m 8/8 8/8 - - -
Di, 23.04. 20:00 540 m 8/8 6/8 - - -
Di, 23.04. 14:00 1020 m 6/8 6/8 - - -
Ortszeit Bedeckungsgrad in Achtel und Wolkenuntergrenze
Do, 25.04. 10:00 1(6600m) 7(7500m)
Do, 25.04. 9:50 1(6600m) 7(7500m)
Do, 25.04. 9:40 3(6600m) 4(6900m) 7(7800m)
Do, 25.04. 9:30 8(6600m) 8(7500m)
Do, 25.04. 9:20 8(6600m)
Do, 25.04. 9:10 8(6900m) 8(8400m)
Do, 25.04. 9:00 6(7200m) 7(7800m) 8(8400m)
Do, 25.04. 8:30 3(6000m) 6(6600m) 8(8400m)
Do, 25.04. 8:00 5(7500m) 6(9000m)
Do, 25.04. 7:30 2(9000m)
Do, 25.04. 7:00 1(7800m)
Ortszeit Luftdruck NN (hPa) Tendenz (hPa in 3 Std.)
Do, 25.04. 8:00 1013 + 1,3
Do, 25.04. 2:00 1010 + 3,0
Mi, 24.04. 20:00 1005 - 0,2
Mi, 24.04. 14:00 1006 + 0,1
Mi, 24.04. 8:00 1007 + 1,1
Mi, 24.04. 2:00 1005 - 0,3
Di, 23.04. 20:00 1005 + 0,1
Di, 23.04. 14:00 1004 - 0,5
Ortszeit Luftdruck NN (hPa) Tendenz (hPa in 3 Std.)
Do, 25.04. 10:00 1013 + 1,7
Do, 25.04. 9:50 1013 keine Meldung
Do, 25.04. 9:40 1013 keine Meldung
Do, 25.04. 9:30 1013 + 1,9
Do, 25.04. 9:20 1013 keine Meldung
Do, 25.04. 9:10 1013 keine Meldung
Do, 25.04. 9:00 1013 + 1,8
Do, 25.04. 8:30 1013 + 1,5
Do, 25.04. 8:00 1013 + 1,3
Do, 25.04. 7:30 1013 + 1,2
Do, 25.04. 7:00 1013 + 1,0
Ortszeit Schneehöhe (cm)
Do, 25.04. 8:00 0
Do, 25.04. 2:00 0
Mi, 24.04. 20:00 0
Mi, 24.04. 14:00 0
Mi, 24.04. 8:00 0
Mi, 24.04. 2:00 0
Di, 23.04. 20:00 0
Di, 23.04. 14:00 0
Ortszeit Schneehöhe (cm)
Do, 25.04. 10:00 0
Do, 25.04. 9:50 0
Do, 25.04. 9:40 0
Do, 25.04. 9:30 0
Do, 25.04. 9:20 0
Do, 25.04. 9:10 0
Do, 25.04. 9:00 0
Do, 25.04. 8:30 0
Do, 25.04. 8:00 0
Do, 25.04. 7:30 0
Do, 25.04. 7:00 0
Link zu dieser Seite / Seite empfehlen

Das Wetter in ...